Time,TemperatureF,DewpointF,PressureIn,WindDirection,WindDirectionDegrees,WindSpeedMPH,WindSpeedGustMPH,Humidity,HourlyPrecipIn,Conditions,Clouds,dailyrainin,SoftwareType,DateUTC
2013-02-24 00:00:00,42.1,39.4,29.97,ESE,103,1.0,6.0,90,0.00,,---,0.00,VWS V14.00,2013-02-24 08:00:00,
2013-02-24 00:03:00,44.5,42.0,29.97,ENE,68,1.0,3.0,91,0.00,,---,0.00,VWS V14.00,2013-02-24 08:03:00,
2013-02-24 00:07:00,44.7,42.0,29.97,ENE,65,0.0,3.0,91,0.00,,,0.00,weatherlink.com 1.10,2013-02-24 08:07:00,
2013-02-24 00:24:00,44.4,42.0,29.97,ESE,115,4.0,6.0,90,0.00,,,0.00,weatherlink.com 1.10,2013-02-24 08:24:00,
2013-02-24 00:30:00,43.8,41.3,29.97,SE,129,1.0,5.0,91,0.00,,---,0.00,VWS V14.00,2013-02-24 08:30:00,
2013-02-24 00:33:00,44.0,41.5,29.97,East,94,1.0,6.0,91,0.00,,---,0.00,VWS V14.00,2013-02-24 08:33:00,
2013-02-24 00:42:00,44.1,42.0,29.97,East,88,1.0,2.0,91,0.00,,,0.00,weatherlink.com 1.10,2013-02-24 08:42:00,
2013-02-24 00:59:00,42.5,40.0,29.99,ESE,121,3.0,5.0,90,0.00,,,0.00,weatherlink.com 1.10,2013-02-24 08:59:00,
2013-02-24 01:00:00,43.6,41.4,29.97,East,80,0.0,4.0,92,0.00,,---,0.00,VWS V14.00,2013-02-24 09:00:00,
2013-02-24 01:03:00,42.1,39.4,29.97,ESE,103,1.0,6.0,90,0.00,,---,0.00,VWS V14.00,2013-02-24 09:03:00,
2013-02-24 01:16:00,42.4,41.0,29.97,ESE,109,1.0,3.0,93,0.00,,,0.00,weatherlink.com 1.10,2013-02-24 09:16:00,
2013-02-24 01:30:00,41.9,39.5,29.96,ESE,107,3.0,6.0,91,0.00,,---,0.00,VWS V14.00,2013-02-24 09:30:00,
2013-02-24 01:33:00,43.8,41.3,29.97,SE,129,1.0,5.0,91,0.00,,---,0.00,VWS V14.00,2013-02-24 09:33:00,
2013-02-24 01:50:00,43.3,41.0,29.97,East,80,0.0,3.0,91,0.00,,,0.00,weatherlink.com 1.10,2013-02-24 09:50:00,
2013-02-24 02:00:00,42.6,40.7,29.96,East,101,0.0,4.0,93,0.00,,---,0.00,VWS V14.00,2013-02-24 10:00:00,
2013-02-24 02:03:00,43.6,41.4,29.97,East,80,0.0,4.0,92,0.00,,---,0.00,VWS V14.00,2013-02-24 10:03:00,
2013-02-24 02:08:00,44.0,42.0,29.97,East,80,0.0,0.0,93,0.00,,,0.00,weatherlink.com 1.10,2013-02-24 10:08:00,
2013-02-24 02:25:00,42.2,40.0,29.97,ESE,107,1.0,5.0,90,0.00,,,0.00,weatherlink.com 1.10,2013-02-24 10:25:00,
2013-02-24 02:30:00,43.4,41.0,29.97,ESE,113,0.0,4.0,91,0.00,,---,0.00,VWS V14.00,2013-02-24 10:30:00,
2013-02-24 02:33:00,41.9,39.5,29.96,ESE,107,3.0,6.0,91,0.00,,---,0.00,VWS V14.00,2013-02-24 10:33:00,
2013-02-24 02:42:00,41.8,40.0,29.96,East,95,2.0,4.0,92,0.00,,,0.00,weatherlink.com 1.10,2013-02-24 10:42:00,
2013-02-24 02:59:00,42.4,41.0,29.97,East,101,0.0,0.0,93,0.00,,,0.00,weatherlink.com 1.10,2013-02-24 10:59:00,
2013-02-24 03:00:00,43.9,41.2,29.98,ESE,103,0.0,2.0,90,0.00,,---,0.00,VWS V14.00,2013-02-24 11:00:00,
2013-02-24 03:03:00,42.6,40.7,29.96,East,101,0.0,4.0,93,0.00,,---,0.00,VWS V14.00,2013-02-24 11:03:00,
2013-02-24 03:17:00,43.1,41.0,29.97,East,101,0.0,1.0,93,0.00,,,0.00,weatherlink.com 1.10,2013-02-24 11:17:00,
2013-02-24 03:30:00,47.0,43.9,29.98,WSW,250,0.0,4.0,89,0.00,,---,0.00,VWS V14.00,2013-02-24 11:30:00,
2013-02-24 03:33:00,43.4,41.0,29.97,ESE,113,0.0,4.0,91,0.00,,---,0.00,VWS V14.00,2013-02-24 11:33:00,
2013-02-24 03:35:00,43.3,41.0,29.97,ESE,113,0.0,3.0,91,0.00,,,0.00,weatherlink.com 1.10,2013-02-24 11:35:00,
2013-02-24 03:51:00,44.2,42.0,29.97,ESE,103,0.0,2.0,93,0.00,,,0.00,weatherlink.com 1.10,2013-02-24 11:51:00,
2013-02-24 04:00:00,42.4,39.7,29.99,ESE,111,1.0,4.0,90,0.00,,---,0.00,VWS V14.00,2013-02-24 12:00:00,
2013-02-24 04:03:00,43.9,41.2,29.98,ESE,103,0.0,2.0,90,0.00,,---,0.00,VWS V14.00,2013-02-24 12:03:00,
2013-02-24 04:09:00,44.7,43.0,29.98,ESE,103,0.0,1.0,93,0.00,,,0.00,weatherlink.com 1.10,2013-02-24 12:09:00,
2013-02-24 04:26:00,45.8,44.0,29.98,WSW,244,1.0,2.0,93,0.00,,,0.00,weatherlink.com 1.10,2013-02-24 12:26:00,
2013-02-24 04:30:00,42.3,39.9,30.00,SE,124,4.0,7.0,91,0.01,,---,0.01,VWS V14.00,2013-02-24 12:30:00,
2013-02-24 04:33:00,47.0,43.9,29.98,WSW,250,0.0,4.0,89,0.00,,---,0.00,VWS V14.00,2013-02-24 12:33:00,
2013-02-24 04:43:00,46.0,42.0,29.98,ESE,119,2.0,3.0,87,0.00,,,0.00,weatherlink.com 1.10,2013-02-24 12:43:00,
2013-02-24 05:00:00,43.7,41.8,30.00,ESE,106,0.0,6.0,93,0.01,,---,0.01,VWS V14.00,2013-02-24 13:00:00,
2013-02-24 05:01:00,42.7,40.0,29.99,ESE,105,1.0,5.0,89,0.00,,,0.00,weatherlink.com 1.10,2013-02-24 13:01:00,
2013-02-24 05:03:00,42.4,39.7,29.99,ESE,111,1.0,4.0,90,0.00,,---,0.00,VWS V14.00,2013-02-24 13:03:00,
2013-02-24 05:18:00,42.3,40.0,29.99,ESE,108,1.0,5.0,92,0.00,,,0.00,weatherlink.com 1.10,2013-02-24 13:18:00,
2013-02-24 05:30:00,44.2,42.3,30.02,ENE,59,0.0,3.0,93,0.01,,---,0.01,VWS V14.00,2013-02-24 13:30:00,
2013-02-24 05:33:00,42.3,39.9,30.00,SE,124,4.0,7.0,91,0.01,,---,0.01,VWS V14.00,2013-02-24 13:33:00,
2013-02-24 05:36:00,42.0,40.0,30.00,NE,43,1.0,7.0,91,0.01,,,0.01,weatherlink.com 1.10,2013-02-24 13:36:00,
2013-02-24 05:52:00,43.0,41.0,30.00,SE,124,0.0,3.0,93,0.01,,,0.01,weatherlink.com 1.10,2013-02-24 13:52:00,
2013-02-24 06:00:00,42.4,40.0,30.03,SSE,161,0.0,5.0,91,0.00,,---,0.01,VWS V14.00,2013-02-24 14:00:00,
2013-02-24 06:03:00,43.7,41.8,30.00,ESE,106,0.0,6.0,93,0.01,,---,0.01,VWS V14.00,2013-02-24 14:03:00,
2013-02-24 06:10:00,43.8,42.0,30.00,ESE,105,0.0,3.0,92,0.01,,,0.01,weatherlink.com 1.10,2013-02-24 14:10:00,
2013-02-24 06:27:00,43.8,42.0,30.01,ENE,71,0.0,1.0,93,0.00,,,0.01,weatherlink.com 1.10,2013-02-24 14:27:00,
2013-02-24 06:30:00,46.1,44.2,30.05,NNE,18,0.0,5.0,93,0.00,,---,0.01,VWS V14.00,2013-02-24 14:30:00,
2013-02-24 06:33:00,44.2,42.3,30.02,ENE,59,0.0,3.0,93,0.01,,---,0.01,VWS V14.00,2013-02-24 14:33:00,
2013-02-24 06:44:00,43.9,42.0,30.02,SSW,194,2.0,2.0,92,0.00,,,0.01,weatherlink.com 1.10,2013-02-24 14:44:00,
2013-02-24 07:00:00,48.6,44.6,30.06,ENE,78,1.0,6.0,86,0.00,,---,0.01,VWS V14.00,2013-02-24 15:00:00,
2013-02-24 07:02:00,42.4,40.0,30.03,SSE,161,0.0,2.0,91,0.00,,,0.01,weatherlink.com 1.10,2013-02-24 15:02:00,
2013-02-24 07:03:00,42.4,40.0,30.03,SSE,161,0.0,5.0,91,0.00,,---,0.01,VWS V14.00,2013-02-24 15:03:00,
2013-02-24 07:18:00,44.0,42.0,30.04,ENE,77,2.0,4.0,92,0.00,,,0.01,weatherlink.com 1.10,2013-02-24 15:18:00,
2013-02-24 07:30:00,52.7,46.7,30.07,West,264,3.0,5.0,80,0.00,,---,0.01,VWS V14.00,2013-02-24 15:30:00,
2013-02-24 07:33:00,46.1,44.2,30.05,NNE,18,0.0,5.0,93,0.00,,---,0.01,VWS V14.00,2013-02-24 15:33:00,
2013-02-24 07:35:00,46.5,44.0,30.05,NNE,18,0.0,0.0,92,0.00,,,0.01,weatherlink.com 1.10,2013-02-24 15:35:00,
2013-02-24 07:53:00,48.5,45.0,30.05,ENE,78,2.0,3.0,86,0.00,,,0.01,weatherlink.com 1.10,2013-02-24 15:53:00,
2013-02-24 08:00:00,53.9,44.3,30.08,West,278,3.0,5.0,70,0.00,,---,0.01,VWS V14.00,2013-02-24 16:00:00,
2013-02-24 08:03:00,48.6,44.6,30.06,ENE,78,1.0,6.0,86,0.00,,---,0.01,VWS V14.00,2013-02-24 16:03:00,
2013-02-24 08:10:00,49.9,46.0,30.06,East,96,1.0,3.0,87,0.00,,,0.01,weatherlink.com 1.10,2013-02-24 16:10:00,
2013-02-24 08:27:00,52.3,47.0,30.07,WSW,256,1.0,4.0,81,0.00,,,0.01,weatherlink.com 1.10,2013-02-24 16:27:00,
2013-02-24 08:30:00,55.4,37.6,30.08,West,276,1.0,6.0,51,0.00,,---,0.01,VWS V14.00,2013-02-24 16:30:00,
2013-02-24 08:33:00,52.7,46.7,30.07,West,264,3.0,5.0,80,0.00,,---,0.01,VWS V14.00,2013-02-24 16:33:00,
2013-02-24 08:45:00,53.5,46.0,30.07,West,263,3.0,5.0,75,0.00,,,0.01,weatherlink.com 1.10,2013-02-24 16:45:00,
2013-02-24 09:00:00,56.8,37.3,30.09,West,261,4.0,7.0,48,0.00,,---,0.01,VWS V14.00,2013-02-24 17:00:00,
2013-02-24 09:02:00,53.7,44.0,30.07,WSW,254,2.0,4.0,70,0.00,,,0.01,weatherlink.com 1.10,2013-02-24 17:02:00,
2013-02-24 09:03:00,53.9,44.3,30.08,West,278,3.0,5.0,70,0.00,,---,0.01,VWS V14.00,2013-02-24 17:03:00,
2013-02-24 09:20:00,55.0,43.0,30.08,NW,311,4.0,5.0,65,0.00,,,0.01,weatherlink.com 1.10,2013-02-24 17:20:00,
2013-02-24 09:30:00,57.6,34.7,30.09,WSW,250,5.0,7.0,42,0.00,,---,0.01,VWS V14.00,2013-02-24 17:30:00,
2013-02-24 09:33:00,55.4,37.6,30.08,West,276,1.0,6.0,51,0.00,,---,0.01,VWS V14.00,2013-02-24 17:33:00,
2013-02-24 09:37:00,55.9,36.0,30.08,WSW,239,4.0,6.0,48,0.00,,,0.01,weatherlink.com 1.10,2013-02-24 17:37:00,
2013-02-24 09:54:00,56.4,36.0,30.08,WNW,295,4.0,6.0,46,0.00,,,0.01,weatherlink.com 1.10,2013-02-24 17:54:00,
2013-02-24 10:00:00,58.1,39.1,30.09,West,268,1.0,9.0,49,0.00,,---,0.01,VWS V14.00,2013-02-24 18:00:00,
2013-02-24 10:03:00,56.8,37.3,30.09,West,261,4.0,7.0,48,0.00,,---,0.01,VWS V14.00,2013-02-24 18:03:00,
2013-02-24 10:11:00,57.1,37.0,30.09,West,277,4.0,7.0,47,0.00,,,0.01,weatherlink.com 1.10,2013-02-24 18:11:00,
2013-02-24 10:29:00,57.5,37.0,30.09,WSW,246,5.0,7.0,46,0.00,,,0.01,weatherlink.com 1.10,2013-02-24 18:29:00,
2013-02-24 10:30:00,64.8,16.1,30.08,NW,317,3.0,17.0,15,0.00,,---,0.01,VWS V14.00,2013-02-24 18:30:00,
2013-02-24 10:46:00,58.0,40.0,30.09,WSW,246,4.0,8.0,52,0.00,,,0.01,weatherlink.com 1.10,2013-02-24 18:46:00,
2013-02-24 11:00:00,65.1,14.8,30.07,NE,46,5.0,14.0,14,0.00,,---,0.01,VWS V14.00,2013-02-24 19:00:00,
2013-02-24 11:03:00,58.1,39.1,30.09,West,268,1.0,9.0,49,0.00,,---,0.01,VWS V14.00,2013-02-24 19:03:00,
2013-02-24 11:21:00,63.6,18.0,30.08,North,9,4.0,11.0,17,0.00,,,0.01,weatherlink.com 1.10,2013-02-24 19:21:00,
2013-02-24 11:30:00,65.3,13.2,30.07,NNE,29,7.0,16.0,13,0.00,,---,0.01,VWS V14.00,2013-02-24 19:30:00,
2013-02-24 11:33:00,64.8,16.1,30.08,NW,317,3.0,17.0,15,0.00,,---,0.01,VWS V14.00,2013-02-24 19:33:00,
2013-02-24 11:38:00,64.7,14.0,30.08,NNE,20,2.0,11.0,14,0.00,,,0.01,weatherlink.com 1.10,2013-02-24 19:38:00,
2013-02-24 11:55:00,64.6,12.0,30.08,NE,51,7.0,14.0,13,0.00,,,0.01,weatherlink.com 1.10,2013-02-24 19:55:00,
2013-02-24 12:00:00,66.7,14.3,30.07,ESE,111,4.0,17.0,13,0.00,,---,0.01,VWS V14.00,2013-02-24 20:00:00,
2013-02-24 12:03:00,65.1,14.8,30.07,NE,46,5.0,14.0,14,0.00,,---,0.01,VWS V14.00,2013-02-24 20:03:00,
2013-02-24 12:13:00,65.0,13.0,30.07,NE,43,7.0,13.0,13,0.00,,,0.01,weatherlink.com 1.10,2013-02-24 20:13:00,
2013-02-24 12:30:00,67.6,13.2,30.06,East,96,10.0,13.0,12,0.00,,---,0.01,VWS V14.00,2013-02-24 20:30:00,
2013-02-24 12:31:00,65.2,11.0,30.06,NNE,19,7.0,14.0,12,0.00,,,0.01,weatherlink.com 1.10,2013-02-24 20:31:00,
2013-02-24 12:33:00,65.3,13.2,30.07,NNE,29,7.0,16.0,13,0.00,,---,0.01,VWS V14.00,2013-02-24 20:33:00,
2013-02-24 12:47:00,66.2,14.0,30.06,North,9,5.0,19.0,13,0.00,,,0.01,weatherlink.com 1.10,2013-02-24 20:47:00,
2013-02-24 13:00:00,67.8,9.3,30.05,East,84,5.0,15.0,10,0.00,,---,0.01,VWS V14.00,2013-02-24 21:00:00,
2013-02-24 13:03:00,66.7,14.3,30.07,ESE,111,4.0,17.0,13,0.00,,---,0.01,VWS V14.00,2013-02-24 21:03:00,
2013-02-24 13:05:00,67.0,14.0,30.07,East,95,8.0,14.0,13,0.00,,,0.01,weatherlink.com 1.10,2013-02-24 21:05:00,
2013-02-24 13:23:00,66.5,10.0,30.06,East,80,3.0,13.0,11,0.00,,,0.01,weatherlink.com 1.10,2013-02-24 21:23:00,
2013-02-24 13:30:00,69.1,10.3,30.05,ENE,78,7.0,14.0,10,0.00,,---,0.01,VWS V14.00,2013-02-24 21:30:00,
2013-02-24 13:33:00,67.6,13.2,30.06,East,96,10.0,13.0,12,0.00,,---,0.01,VWS V14.00,2013-02-24 21:33:00,
2013-02-24 13:39:00,67.3,11.0,30.06,North,5,5.0,14.0,11,0.00,,,0.01,weatherlink.com 1.10,2013-02-24 21:39:00,
2013-02-24 13:57:00,68.2,14.0,30.05,ESE,119,1.0,14.0,12,0.00,,,0.01,weatherlink.com 1.10,2013-02-24 21:57:00,
2013-02-24 14:00:00,68.6,29.4,30.05,NW,309,2.0,15.0,23,0.00,,---,0.01,VWS V14.00,2013-02-24 22:00:00,
2013-02-24 14:03:00,67.8,9.3,30.05,East,84,5.0,15.0,10,0.00,,---,0.01,VWS V14.00,2013-02-24 22:03:00,
2013-02-24 14:15:00,67.9,11.0,30.05,NW,313,2.0,14.0,11,0.00,,,0.01,weatherlink.com 1.10,2013-02-24 22:15:00,
2013-02-24 14:30:00,65.9,31.0,30.05,SW,236,4.0,10.0,27,0.00,,---,0.01,VWS V14.00,2013-02-24 22:30:00,
2013-02-24 14:31:00,69.2,10.0,30.05,East,98,1.0,11.0,10,0.00,,,0.01,weatherlink.com 1.10,2013-02-24 22:31:00,
2013-02-24 14:33:00,69.1,10.3,30.05,ENE,78,7.0,14.0,10,0.00,,---,0.01,VWS V14.00,2013-02-24 22:33:00,
2013-02-24 14:49:00,68.4,10.0,30.05,East,86,3.0,15.0,10,0.00,,,0.01,weatherlink.com 1.10,2013-02-24 22:49:00,
2013-02-24 15:00:00,63.5,30.7,30.06,WSW,246,4.0,12.0,29,0.00,,---,0.01,VWS V14.00,2013-02-24 23:00:00,
2013-02-24 15:03:00,68.6,29.4,30.05,NW,309,2.0,15.0,23,0.00,,---,0.01,VWS V14.00,2013-02-24 23:03:00,
2013-02-24 15:06:00,68.5,12.0,30.05,ENE,59,4.0,14.0,11,0.00,,,0.01,weatherlink.com 1.10,2013-02-24 23:06:00,
2013-02-24 15:23:00,65.0,29.0,30.05,SW,236,5.0,11.0,26,0.00,,,0.01,weatherlink.com 1.10,2013-02-24 23:23:00,
2013-02-24 15:30:00,62.6,36.7,30.07,West,270,5.0,9.0,38,0.00,,---,0.01,VWS V14.00,2013-02-24 23:30:00,
2013-02-24 15:33:00,65.9,31.0,30.05,SW,236,4.0,10.0,27,0.00,,---,0.01,VWS V14.00,2013-02-24 23:33:00,
2013-02-24 15:41:00,63.9,32.0,30.05,South,178,6.0,12.0,30,0.00,,,0.01,weatherlink.com 1.10,2013-02-24 23:41:00,
2013-02-24 15:59:00,64.0,30.0,30.05,West,267,8.0,11.0,28,0.00,,,0.01,weatherlink.com 1.10,2013-02-24 23:59:00,
2013-02-24 16:00:00,62.6,33.1,30.07,WSW,237,1.0,8.0,33,0.00,,---,0.01,VWS V14.00,2013-02-25 00:00:00,
2013-02-24 16:03:00,63.5,30.7,30.06,WSW,246,4.0,12.0,29,0.00,,---,0.01,VWS V14.00,2013-02-25 00:03:00,
2013-02-24 16:15:00,63.1,36.0,30.06,WSW,244,7.0,10.0,36,0.00,,,0.01,weatherlink.com 1.10,2013-02-25 00:15:00,
2013-02-24 16:30:00,60.4,40.6,30.09,WSW,254,1.0,6.0,48,0.00,,---,0.01,VWS V14.00,2013-02-25 00:30:00,
2013-02-24 16:33:00,62.6,36.0,30.07,West,267,5.0,9.0,38,0.00,,,0.01,weatherlink.com 1.10,2013-02-25 00:33:00,
2013-02-24 16:50:00,62.9,33.0,30.07,West,267,4.0,8.0,33,0.00,,,0.01,weatherlink.com 1.10,2013-02-25 00:50:00,
2013-02-24 17:00:00,57.8,44.0,30.09,West,269,0.0,5.0,60,0.00,,---,0.01,VWS V14.00,2013-02-25 01:00:00,
2013-02-24 17:03:00,62.6,33.1,30.07,WSW,237,1.0,8.0,33,0.00,,---,0.01,VWS V14.00,2013-02-25 01:03:00,
2013-02-24 17:08:00,63.0,37.0,30.07,SSW,196,4.0,5.0,38,0.00,,,0.01,weatherlink.com 1.10,2013-02-25 01:08:00,
2013-02-24 17:24:00,61.4,37.0,30.08,WSW,242,3.0,6.0,41,0.00,,,0.01,weatherlink.com 1.10,2013-02-25 01:24:00,
2013-02-24 17:30:00,55.8,44.6,30.11,ESE,119,2.0,6.0,66,0.00,,---,0.01,VWS V14.00,2013-02-25 01:30:00,
2013-02-24 17:33:00,60.4,40.6,30.09,WSW,254,1.0,6.0,48,0.00,,---,0.01,VWS V14.00,2013-02-25 01:33:00,
2013-02-24 17:42:00,59.5,42.0,30.09,SW,230,0.0,5.0,53,0.00,,,0.01,weatherlink.com 1.10,2013-02-25 01:42:00,
2013-02-24 17:59:00,58.0,44.0,30.09,West,267,3.0,3.0,59,0.00,,,0.01,weatherlink.com 1.10,2013-02-25 01:59:00,
2013-02-24 18:00:00,55.1,45.5,30.11,North,355,3.0,7.0,70,0.00,,---,0.01,VWS V14.00,2013-02-25 02:00:00,
2013-02-24 18:17:00,56.6,43.0,30.09,SE,139,4.0,5.0,60,0.00,,,0.01,weatherlink.com 1.10,2013-02-25 02:17:00,
2013-02-24 18:30:00,54.4,44.5,30.13,ESE,113,0.0,5.0,69,0.00,,---,0.01,VWS V14.00,2013-02-25 02:30:00,
2013-02-24 18:33:00,55.8,44.6,30.11,ESE,119,2.0,6.0,66,0.00,,---,0.01,VWS V14.00,2013-02-25 02:33:00,
2013-02-24 18:51:00,55.4,46.0,30.11,South,184,0.0,7.0,71,0.00,,,0.01,weatherlink.com 1.10,2013-02-25 02:51:00,
2013-02-24 19:00:00,53.8,43.1,30.14,WNW,298,3.0,4.0,67,0.00,,---,0.01,VWS V14.00,2013-02-25 03:00:00,
2013-02-24 19:03:00,55.1,45.5,30.11,North,355,3.0,7.0,70,0.00,,---,0.01,VWS V14.00,2013-02-25 03:03:00,
2013-02-24 19:25:00,54.9,44.0,30.12,ESE,117,4.0,5.0,68,0.00,,,0.01,weatherlink.com 1.10,2013-02-25 03:25:00,
2013-02-24 19:30:00,53.2,42.9,30.15,WNW,289,5.0,6.0,68,0.00,,---,0.01,VWS V14.00,2013-02-25 03:30:00,
2013-02-24 19:33:00,54.4,44.5,30.13,ESE,113,0.0,5.0,69,0.00,,---,0.01,VWS V14.00,2013-02-25 03:33:00,
2013-02-24 19:42:00,54.2,44.0,30.13,NW,314,2.0,3.0,69,0.00,,,0.01,weatherlink.com 1.10,2013-02-25 03:42:00,
2013-02-24 19:59:00,53.5,44.0,30.13,NW,310,2.0,4.0,69,0.00,,,0.01,weatherlink.com 1.10,2013-02-25 03:59:00,
2013-02-24 20:00:00,53.0,41.6,30.16,NW,305,3.0,6.0,65,0.00,,---,0.01,VWS V14.00,2013-02-25 04:00:00,
2013-02-24 20:30:00,49.3,38.0,30.17,ENE,69,1.0,8.0,65,0.00,,---,0.01,VWS V14.00,2013-02-25 04:30:00,
2013-02-24 20:33:00,53.2,42.9,30.15,WNW,289,5.0,6.0,68,0.00,,---,0.01,VWS V14.00,2013-02-25 04:33:00,
2013-02-24 20:51:00,53.0,42.0,30.15,NW,319,4.0,5.0,66,0.00,,,0.01,weatherlink.com 1.10,2013-02-25 04:51:00,
2013-02-24 21:00:00,52.2,34.1,30.17,ESE,111,2.0,8.0,50,0.00,,---,0.01,VWS V14.00,2013-02-25 05:00:00,
2013-02-24 21:03:00,53.0,41.6,30.16,NW,305,3.0,6.0,65,0.00,,---,0.01,VWS V14.00,2013-02-25 05:03:00,
2013-02-24 21:08:00,52.7,39.0,30.16,NNW,330,2.0,4.0,60,0.00,,,0.01,weatherlink.com 1.10,2013-02-25 05:08:00,
2013-02-24 21:26:00,49.8,38.0,30.16,ESE,119,1.0,8.0,64,0.00,,,0.01,weatherlink.com 1.10,2013-02-25 05:26:00,
2013-02-24 21:30:00,47.0,28.3,30.17,ESE,103,2.0,7.0,48,0.00,,---,0.01,VWS V14.00,2013-02-25 05:30:00,
2013-02-24 21:33:00,49.3,38.0,30.17,ENE,69,1.0,8.0,65,0.00,,---,0.01,VWS V14.00,2013-02-25 05:33:00,
2013-02-24 21:43:00,50.6,34.0,30.17,NNE,17,3.0,4.0,53,0.00,,,0.01,weatherlink.com 1.10,2013-02-25 05:43:00,
2013-02-24 22:00:00,54.2,33.0,30.17,ESE,114,2.0,6.0,44,0.00,,,0.01,weatherlink.com 1.10,2013-02-25 06:00:00,
2013-02-24 22:17:00,46.8,32.0,30.17,SE,125,2.0,6.0,56,0.00,,,0.01,weatherlink.com 1.10,2013-02-25 06:17:00,
2013-02-24 22:30:00,48.5,26.5,30.18,East,80,0.0,3.0,42,0.00,,---,0.01,VWS V14.00,2013-02-25 06:30:00,
2013-02-24 22:33:00,47.0,28.3,30.17,ESE,103,2.0,7.0,48,0.00,,---,0.01,VWS V14.00,2013-02-25 06:33:00,
2013-02-24 22:35:00,47.1,28.0,30.17,SE,143,2.0,7.0,47,0.00,,,0.01,weatherlink.com 1.10,2013-02-25 06:35:00,
2013-02-24 22:51:00,47.6,28.0,30.18,SE,126,1.0,7.0,46,0.00,,,0.01,weatherlink.com 1.10,2013-02-25 06:51:00,
2013-02-24 23:00:00,48.1,26.7,30.19,ESE,109,3.0,3.0,43,0.00,,---,0.00,VWS V14.00,2013-02-25 07:00:00,
2013-02-24 23:03:00,47.6,28.4,30.18,East,82,2.0,7.0,47,0.00,,---,0.01,VWS V14.00,2013-02-25 07:03:00,
2013-02-24 23:09:00,47.6,26.0,30.18,East,95,0.0,3.0,44,0.00,,,0.01,weatherlink.com 1.10,2013-02-25 07:09:00,
2013-02-24 23:27:00,48.6,26.0,30.18,East,82,0.0,2.0,41,0.00,,,0.01,weatherlink.com 1.10,2013-02-25 07:27:00,
2013-02-24 23:30:00,41.0,26.1,30.19,ESE,106,2.0,5.0,55,0.00,,---,0.00,VWS V14.00,2013-02-25 07:30:00,
2013-02-24 23:33:00,48.5,26.5,30.18,East,80,0.0,3.0,42,0.00,,---,0.01,VWS V14.00,2013-02-25 07:33:00,
2013-02-24 23:43:00,48.1,25.0,30.18,East,80,1.0,2.0,40,0.00,,,0.01,weatherlink.com 1.10,2013-02-25 07:43:00,